Tracking 29781 objects as of 15-Oct-2024
HD Live streaming from Space Station
objects crossing your sky now

DELTA 1 DEB

Track DELTA 1 DEB now!
10-day predictions


NORAD ID: 21319
Int'l Code: 1975-052AM
Perigee: 1,064.8 km
Apogee: 1,423.0 km
Inclination: 99.7 °
Period: 110.2 minutes
Semi major axis: 7614 km
RCS: 0.0592 m2 (small)
Launch date: June 12, 1975
Source: United States (US)
Launch site: AIR FORCE WESTERN TEST RANGE (AFWTR)

Note: This is SATELLITE DEBRIS
Your satellite tracking list
Your tracking list is empty




NASA's NSSDC Master Catalog

Two Line Element Set (TLE):
1 21319U 75052AM  24288.16129552  .00000735  00000-0  20458-2 0  9996
2 21319  99.6654 147.9143 0235176 168.5910 311.0726 13.06491302590407
Source of the keplerian elements: AFSPC